EWG6PL ENBR-EDDM

Flight info

Callsign EWG6PL
Flight time N/A
Altitude 37000
Route TUXIL DCT ZOL DCT ATTUS DCT ABGUS Z94 GALMA T703 LULAR T105 LANDU LANDU2A
Aircraft A320/M-SDE3FGHIRWY/LB1

Departure

Time N/A
Airport Bergen Airport, Flesland (ENBR)

Arrival

Time 2026-04-30 18:21
Airport Munich Airport (EDDM)
Time Latitude Longitude Altitude Speed Heading
2026-04-30 17:39 51.85392 11.06319 30967 ft 464 kts 155°
2026-04-30 17:41 51.62809 11.25770 30951 ft 433 kts 153°
2026-04-30 17:42 51.57508 11.30218 30949 ft 424 kts 153°
2026-04-30 17:43 51.44502 11.41166 30949 ft 423 kts 153°
2026-04-30 17:44 51.28286 11.52085 30953 ft 422 kts 162°
2026-04-30 17:47 51.03171 11.65367 30953 ft 422 kts 162°
2026-04-30 17:48 50.83676 11.75588 30953 ft 422 kts 162°
2026-04-30 17:50 50.61339 11.87182 30953 ft 422 kts 162°
2026-04-30 17:51 50.52893 11.91530 29249 ft 442 kts 162°
2026-04-30 17:52 50.44004 11.96126 27230 ft 435 kts 162°
2026-04-30 17:53 50.30327 12.03109 27016 ft 407 kts 162°
2026-04-30 17:54 50.19568 12.08591 27016 ft 407 kts 162°
2026-04-30 17:55 50.08799 12.14025 27016 ft 407 kts 162°
2026-04-30 17:56 49.98034 12.19447 27016 ft 407 kts 162°
2026-04-30 17:57 49.89991 12.23490 27016 ft 407 kts 162°
2026-04-30 17:58 49.81926 12.27594 27016 ft 407 kts 162°
2026-04-30 17:59 49.70821 12.29828 27016 ft 406 kts 180°
2026-04-30 18:00 49.59512 12.29986 26498 ft 413 kts 180°
2026-04-30 18:00 49.51391 12.30094 22417 ft 458 kts 180°
2026-04-30 18:01 49.44902 12.30176 19761 ft 469 kts 180°
2026-04-30 18:02 49.35278 12.30301 17295 ft 448 kts 180°
2026-04-30 18:02 49.27039 12.26641 17016 ft 388 kts 212°
2026-04-30 18:03 49.20607 12.20424 16244 ft 359 kts 212°
2026-04-30 18:04 49.13936 12.13945 12814 ft 398 kts 212°
2026-04-30 18:05 49.04786 12.05244 10993 ft 355 kts 212°
2026-04-30 18:06 48.97204 11.98157 10787 ft 297 kts 212°
2026-04-30 18:07 48.90350 11.91767 10800 ft 289 kts 211°
2026-04-30 18:08 48.85205 11.87004 10800 ft 289 kts 211°
2026-04-30 18:09 48.78358 11.80473 9921 ft 297 kts 212°
2026-04-30 18:10 48.71438 11.73804 9665 ft 295 kts 212°
2026-04-30 18:11 48.63391 11.71925 7345 ft 315 kts 174°
2026-04-30 18:11 48.57155 11.72551 6597 ft 283 kts 191°
2026-04-30 18:12 48.52296 11.67125 4741 ft 290 kts 224°
2026-04-30 18:13 48.49574 11.63098 4660 ft 261 kts 224°
2026-04-30 18:13 48.46268 11.57689 4935 ft 264 kts 241°
2026-04-30 18:14 48.44402 11.51932 4935 ft 261 kts 244°
2026-04-30 18:15 48.41838 11.44748 4763 ft 263 kts 223°
2026-04-30 18:15 48.37045 11.43810 3935 ft 217 kts 148°
2026-04-30 18:16 48.35529 11.46969 3928 ft 167 kts 115°
2026-04-30 18:16 48.34642 11.49954 3926 ft 151 kts 114°
2026-04-30 18:17 48.34311 11.51442 3925 ft 151 kts 91°
2026-04-30 18:17 48.34408 11.53011 3927 ft 150 kts 83°
2026-04-30 18:17 48.34670 11.56301 3935 ft 154 kts 83°
2026-04-30 18:18 48.34795 11.57870 3863 ft 149 kts 83°
2026-04-30 18:18 48.34916 11.59406 3715 ft 147 kts 84°
2026-04-30 18:18 48.35038 11.60949 3540 ft 150 kts 83°
2026-04-30 18:18 48.35161 11.62510 3346 ft 151 kts 84°
2026-04-30 18:19 48.35285 11.64073 3148 ft 150 kts 84°
2026-04-30 18:19 48.35407 11.65630 2950 ft 150 kts 84°
2026-04-30 18:19 48.35529 11.67182 2751 ft 149 kts 84°
2026-04-30 18:19 48.35650 11.68730 2554 ft 149 kts 84°
2026-04-30 18:20 48.35770 11.70271 2357 ft 148 kts 84°
2026-04-30 18:20 48.35891 11.71810 2160 ft 148 kts 84°
2026-04-30 18:20 48.36014 11.73344 1961 ft 147 kts 83°
2026-04-30 18:20 48.36143 11.74872 1765 ft 147 kts 84°
2026-04-30 18:21 48.36256 11.76394 1567 ft 145 kts 84°
2026-04-30 18:21 48.36363 11.77881 1467 ft 134 kts 83°
2026-04-30 18:21 48.36458 11.79066 1468 ft 90 kts 82°
2026-04-30 18:21 48.36507 11.79784 1464 ft 41 kts 85°
2026-04-30 18:22 48.36471 11.80119 1464 ft 23 kts 113°
2026-04-30 18:22 48.36394 11.80379 1466 ft 9 kts 114°
2026-04-30 18:22 48.36346 11.80499 1467 ft 22 kts 140°
2026-04-30 18:23 48.36292 11.80463 1468 ft 10 kts 258°
2026-04-30 18:23 48.36278 11.80313 1468 ft 19 kts 264°
2026-04-30 18:23 48.36259 11.80076 1468 ft 27 kts 262°
2026-04-30 18:23 48.36238 11.79764 1468 ft 32 kts 263°
2026-04-30 18:24 48.36099 11.79482 1468 ft 18 kts 173°
2026-04-30 18:24 48.36065 11.79487 1467 ft 0 kts 174°
2026-04-30 18:25 48.36049 11.79490 1467 ft 12 kts 174°
2026-04-30 18:26 48.35758 11.79471 1467 ft 28 kts 173°
2026-04-30 18:26 48.35595 11.79501 1467 ft 21 kts 173°
2026-04-30 18:26 48.35451 11.79522 1467 ft 16 kts 178°
2026-04-30 18:27 48.35234 11.79488 1467 ft 18 kts 175°
2026-04-30 18:27 48.35168 11.79446 1467 ft 10 kts 250°
2026-04-30 18:28 48.35159 11.79339 1467 ft 0 kts 263°
2026-04-30 18:29 48.35159 11.79341 1467 ft 0 kts 263°